Zurück zum Katalog

STARLINK-31159

AktivKommunikationVLEO
NORAD 58740·PAYLOAD·🇺🇸 United States

Gestartet Jan 7, 2024 von Cape Canaveral Space Force Station

Loading…

Nächste Überflüge (nächste 24 Stunden)

TLE

AktuellSource: CelesTrak SupGP

Epoche: Sep 14, 2026, 21:19 UTC

1 58740C 24005N   26257.88868056  .00039139  00000+0  14172-2 0  2574
2 58740  42.9994 230.8850 0001135 262.9259  90.0190 15.27569189    17

Verfolge STARLINK-31159 in Echtzeit mit AllMySat

Download on the App Store